WX2DX-2 Weather Reports


Display with metric or nautical units.
time (UTC)temp
F
wind
direction
speed
MPH
gust
MPH
rain 1hr
in
rain 24hr
in
rain mn
in
humidity
%
barometer
mb
20220627123023 70 333 3.0 9.0 0.00 0.19 0.19 85 1014.1
20220627121520 68 244 4.0 11.0 0.00 0.19 0.19 87 1014.1
20220627120016 67 259 1.0 7.0 0.00 0.19 0.19 89 1013.9
20220627114514 66 281 2.0 8.0 0.00 0.19 0.19 91 1013.7
20220627113013 67 311 2.0 7.0 0.00 0.19 0.19 93 1013.5
20220627111510 66 297 2.0 7.0 0.00 0.19 0.19 93 1013.4
20220627110009 66 243 1.0 4.0 0.00 0.19 0.19 93 1013.3
20220627104506 66 250 2.0 6.0 0.00 0.19 0.19 93 1013.2
20220627103001 67 280 3.0 7.0 0.00 0.19 0.19 93 1012.9
20220627101606 67 272 2.0 7.0 0.00 0.19 0.19 93 1012.7
20220627100100 67 259 3.0 9.0 0.04 0.19 0.19 93 1012.5
20220627094556 67 285 1.0 7.0 0.16 0.19 0.19 94 1012.1
20220627093110 68 316 1.0 5.0 0.16 0.19 0.19 94 1012.0
20220627091610 68 301 3.0 14.0 0.15 0.18 0.18 94 1012.0
20220627090049 69 320 5.0 10.0 0.11 0.14 0.14 94 1011.9
20220627084547 69 233 1.0 3.0 0.00 0.03 0.03 94 1011.4
20220627083047 69 233 0.0 2.0 0.00 0.03 0.03 94 1011.2
20220627081544 69 233 0.0 0.0 0.00 0.03 0.03 94 1011.7
20220627080042 69 233 0.0 1.0 0.00 0.03 0.03 94 1011.7
20220627074542 69 233 0.0 1.0 0.00 0.03 0.03 93 1011.7
20220627073039 69 233 0.0 2.0 0.00 0.03 0.03 93 1011.8
20220627071536 69 233 0.0 4.0 0.00 0.03 0.03 93 1012.0
20220627070039 69 237 0.0 1.0 0.00 0.03 0.03 93 1012.2
20220627064544 70 237 0.0 2.0 0.00 0.03 0.03 93 1012.1
20220627063034 70 237 0.0 0.0 0.00 0.03 0.03 93 1012.3
20220627061534 69 237 0.0 1.0 0.00 0.03 0.03 93 1012.3
20220627060033 70 237 0.0 1.0 0.03 0.03 0.03 92 1012.3
20220627054531 70 237 0.0 1.0 0.03 0.03 0.03 91 1012.3
20220627053032 71 237 1.0 3.0 0.03 0.03 0.03 90 1012.3
20220627051526 71 248 2.0 5.0 0.03 0.03 0.03 89 1012.5
20220627050026 72 266 2.0 8.0 0.00 0.00 0.00 86 1012.8
20220627044524 72 273 4.0 7.0 0.00 0.00 0.00 88 1012.9
20220627043020 72 321 5.0 10.0 0.00 0.00 0.00 92 1012.7
20220627041518 72 218 0.0 1.0 0.00 0.00 0.00 92 1012.7
20220627040024 72 217 1.0 3.0 0.00 0.00 0.00 92 1012.7
20220627034517 72 218 0.0 3.0 0.00 0.00 0.00 92 1012.8
20220627033015 72 218 0.0 0.0 0.00 0.00 0.00 92 1012.8
20220627031516 72 218 0.0 0.0 0.00 0.00 0.00 92 1012.7
20220627030034 72 218 0.0 1.0 0.00 0.00 0.00 92 1012.7
20220627024533 72 218 0.0 2.0 0.00 0.00 0.00 92 1012.8
20220627023027 72 218 0.0 0.0 0.00 0.00 0.00 91 1013.0
20220627021533 73 218 0.0 0.0 0.00 0.00 0.00 91 1012.7
20220627020027 73 218 0.0 0.0 0.00 0.00 0.00 90 1012.8
20220627014526 74 218 0.0 1.0 0.00 0.00 0.00 89 1012.7
20220627013026 74 218 0.0 1.0 0.00 0.00 0.00 89 1012.7
20220627011528 75 218 0.0 3.0 0.00 0.00 0.00 88 1012.7
20220627010025 75 218 1.0 4.0 0.00 0.00 0.00 87 1012.7
20220627004525 76 226 2.0 5.0 0.00 0.00 0.00 86 1012.7
20220627003023 76 190 1.0 5.0 0.00 0.00 0.00 84 1012.5
20220627001524 76 207 3.0 6.0 0.00 0.00 0.00 82 1012.5
20220627000024 77 188 1.0 5.0 0.00 0.00 0.00 80 1012.5
20220626234523 77 202 1.0 4.0 0.00 0.00 0.00 80 1012.4
20220626233022 77 196 2.0 8.0 0.00 0.00 0.00 80 1012.2
20220626231521 78 200 1.0 3.0 0.00 0.00 0.00 82 1012.3
20220626230020 78 185 2.0 5.0 0.00 0.00 0.00 83 1012.3
20220626224519 78 191 3.0 7.0 0.00 0.00 0.00 83 1012.5
20220626223016 78 211 1.0 8.0 0.00 0.00 0.00 83 1012.7
20220626221515 79 192 2.0 7.0 0.00 0.00 0.00 83 1012.8
20220626220015 79 192 3.0 6.0 0.00 0.00 0.00 83 1012.8
20220626214515 79 208 2.0 6.0 0.00 0.00 0.00 81 1012.9
20220626213014 79 229 3.0 9.0 0.00 0.00 0.00 77 1012.9
20220626211513 80 249 4.0 8.0 0.00 0.00 0.00 71 1012.9
20220626210012 80 198 5.0 10.0 0.00 0.00 0.00 70 1013.0
20220626204527 80 231 5.0 11.0 0.00 0.00 0.00 76 1013.1
20220626203011 81 236 4.0 13.0 0.00 0.00 0.00 75 1013.0
20220626201509 82 182 7.0 11.0 0.00 0.00 0.00 75 1013.0
20220626200016 81 205 4.0 9.0 0.00 0.00 0.00 75 1013.2
20220626194513 81 188 4.0 9.0 0.00 0.00 0.00 80 1013.3
20220626193013 81 201 3.0 9.0 0.00 0.00 0.00 80 1013.4
20220626191504 80 217 5.0 11.0 0.00 0.00 0.00 79 1013.6
20220626190004 80 211 3.0 10.0 0.00 0.00 0.00 79 1013.6
20220626184509 80 207 3.0 8.0 0.00 0.00 0.00 77 1013.6
20220626183002 82 177 7.0 11.0 0.00 0.00 0.00 72 1013.5
20220626181600 82 176 7.0 11.0 0.00 0.00 0.00 72 1013.7
20220626180059 83 188 5.0 10.0 0.00 0.00 0.00 71 1013.7
20220626174603 83 209 6.0 10.0 0.00 0.00 0.00 74 1014.1
20220626173100 82 187 4.0 7.0 0.00 0.00 0.00 72 1014.5
20220626171557 81 139 4.0 8.0 0.00 0.00 0.00 73 1014.6
20220626170056 82 191 3.0 11.0 0.00 0.00 0.00 73 1014.9
20220626164547 83 213 4.0 9.0 0.00 0.00 0.00 71 1015.0
20220626163046 83 161 4.0 8.0 0.00 0.00 0.00 72 1015.1
20220626161545 82 194 6.0 9.0 0.00 0.00 0.00 73 1015.2
20220626160049 81 196 3.0 11.0 0.00 0.00 0.00 75 1015.3
20220626154537 81 188 7.0 12.0 0.00 0.00 0.00 75 1015.5
20220626153034 80 167 8.0 13.0 0.00 0.00 0.00 74 1015.6
20220626151534 80 154 6.0 9.0 0.00 0.00 0.00 76 1015.6
20220626150029 79 219 4.0 9.0 0.00 0.00 0.00 78 1015.6
20220626144525 78 225 4.0 8.0 0.00 0.00 0.00 79 1015.7
20220626143022 78 220 4.0 8.0 0.00 0.00 0.00 79 1015.9
20220626141519 78 198 4.0 6.0 0.00 0.00 0.00 82 1016.0
20220626140021 77 223 2.0 7.0 0.00 0.00 0.00 83 1016.1
20220626134513 76 150 5.0 8.0 0.00 0.00 0.00 83 1016.2
20220626133013 76 184 2.0 7.0 0.00 0.00 0.00 85 1016.2
20220626131509 74 199 4.0 6.0 0.00 0.00 0.00 86 1016.4
20220626130003 74 273 1.0 4.0 0.00 0.00 0.00 88 1016.4
20220626124604 74 219 2.0 4.0 0.00 0.00 0.00 88 1016.5